Home > Time Zones > World Clock > Weather > Italy > Turin > Past weeks

Flag for Italy Weather past 2 weeks in Turin, Italy

Now
75 °F

Sunny.


Feels Like: 77 °F
Forecast: 65 / 88 °F
Wind: 3 mph from South

Location: Torino / Bric Della Croce

Current Time: Aug 3, 2015 at 3:27:36 PM

Latest Report: Aug 3, 2015 at 1:55 PM


Visibility: 10 mi

Pressure: 30.12 "Hg

Humidity: 65%

Dew point: 63 °F

Location of TurinLocation

Historic Weather in Turin — Graph

°F

Turin temperature yesterday

Maximum temperature yesterday: 75 °F (at 5:55 PM)
Minimum temperature yesterday: 59 °F (at 12:55 AM)
Average temperature yesterday: 66 °F

Past Weeks' High & Low Weather Summary

 TemperatureHumidityPressure
High88 °F (Jul 21, 4:55 PM)100% (Jul 24, 9:55 AM)30.15 "Hg (Jul 24, 9:55 AM)
Low55 °F (Aug 1, 7:55 AM)3% (Jul 31, 2:55 AM)29.74 "Hg (Jul 27, 2:55 PM)
Average73 °F73%29.93 "Hg
* Reported Jul 19 1:55 PM — Aug 3 1:55 PM, Turin, Weather by CustomWeather, © 2015

Note: Actual official high and low records may vary slightly from our data, if they occured in-between our weather recording intervals... More about our weather records

Advertising

Turin weather history for previous 24 hours

 ConditionsComfort  
Time TempWeatherWind HumidityBarometerVisibility
1:55 PM
Mon, Aug 3
75 °FSunny.3 mph65%30.12 "Hg10 mi
12:55 PM73 °FScattered clouds.No wind78%30.15 "HgN/A
11:55 AM70 °FScattered clouds.No wind88%30.15 "HgN/A
10:55 AM68 °FScattered clouds.No wind94%30.15 "HgN/A
9:55 AM68 °FScattered clouds.No wind88%30.12 "HgN/A
8:55 AM66 °FSunny.No wind94%30.09 "Hg10 mi
7:55 AM66 °FSunny.No wind94%30.09 "Hg10 mi
6:55 AM66 °FClear.No wind88%30.09 "Hg10 mi
5:55 AM66 °FClear.No wind88%30.09 "Hg10 mi
4:55 AM66 °FClear.No wind83%30.09 "Hg10 mi
3:55 AM66 °FClear.No wind88%30.09 "Hg10 mi
2:55 AM66 °FClear.No wind78%30.09 "Hg10 mi
1:55 AM68 °FClear.2 mph73%30.09 "Hg10 mi
12:55 AM68 °FClear.3 mph64%30.09 "Hg10 mi
11:55 PM
Sun, Aug 2
68 °FClear.5 mph73%30.09 "Hg10 mi
10:55 PM70 °FClear.5 mph69%30.09 "Hg10 mi
9:55 PM72 °FClear.8 mph61%30.07 "Hg10 mi
8:55 PM75 °FSunny.8 mph54%30.07 "Hg10 mi
7:55 PM75 °FSunny.No wind44%30.07 "Hg10 mi
6:55 PM75 °FPassing clouds.No wind44%30.07 "HgN/A
5:55 PM75 °FSunny.No wind44%30.07 "Hg10 mi
4:55 PM73 °FPassing clouds.No wind50%30.07 "HgN/A
3:55 PM73 °FSunny.No wind50%30.07 "Hg10 mi
Weather by CustomWeather, © 2015

See weather overviewHow to use our weather pages